Location: Rowland
(34.5359°N, 79.2929°W)
Time: 18:07:38
(UTC+00:00)

Transit 2A Rocket - Pass Details

Date: 03 October 2022
Orbit: 589 x 911 km, 66.7° (Epoch: 02 December)

Event Time Altitude Azimuth Distance (km) Brightness Sun altitude
Rises 20:49:02 0° 321° (NW) 3,084 8.3 24.9°
Reaches altitude 10° 20:51:29 10° 312° (NW) 2,215 7.8 24.4°
Maximum altitude 20:55:58 33° 249° (WSW) 1,282 8.7 23.6°
Drops below altitude 10° 21:00:49 10° 187° (S) 2,396 8.1 22.7°
Sets 21:03:34 0° 178° (S) 3,376 8.6 22.1°
